Overview Statistics Trail Chart Weather Telemetry Raw packets
 

This is the latest recevied weather packets stored in our database for station/object KC5DAQ-26. If no packets are shown the sender has not sent any weather packets the latest 10 day(s).

<< 421 422 423 424 425 426 427 >>
Time Temp. Humidity Pressure Rain* Wind** Luminosity Snow
1788043683 34.44° C 59% 1017.1 hPa 0 mm - 341 W/m² -
1788043623 34.44° C 60% 1017.1 hPa 0 mm - 348 W/m² -
1788043562 34.44° C 59% 1017.1 hPa 0 mm - 352 W/m² -
1788043503 34.44° C 61% 1017.2 hPa 0 mm - 353 W/m² -
1788043443 35° C 59% 1017.1 hPa 0 mm - 357 W/m² -
1788043383 35° C 59% 1017.1 hPa 0 mm - 361 W/m² -
1788043322 35° C 58% 1017.2 hPa 0 mm - 362 W/m² -
1788043264 35° C 60% 1017.2 hPa 0 mm - 371 W/m² -
1788043205 35° C 60% 1017.2 hPa 0 mm - 376 W/m² -
1788043142 35° C 61% 1017.2 hPa 0 mm - 380 W/m² -
1788043082 35° C 58% 1017.2 hPa 0 mm - 387 W/m² -
1788043024 35° C 59% 1017.2 hPa 0 mm - 399 W/m² -
1788042963 35° C 60% 1017.2 hPa 0 mm - 410 W/m² -
1788042905 35° C 59% 1017.3 hPa 0 mm - 410 W/m² -
1788042844 35° C 59% 1017.2 hPa 0 mm - 410 W/m² -
1788042783 35° C 59% 1017.3 hPa 0 mm - 410 W/m² -
1788042722 35° C 60% 1017.3 hPa 0 mm - 412 W/m² -
1788042664 35° C 59% 1017.2 hPa 0 mm - 410 W/m² -
1788042604 35° C 62% 1017.3 hPa 0 mm - 408 W/m² -
1788042544 35° C 59% 1017.2 hPa 0 mm - 406 W/m² -
1788042482 35° C 58% 1017.3 hPa 0 mm - 406 W/m² -
1788042423 35° C 58% 1017.3 hPa 0 mm - 401 W/m² -
1788042363 35° C 59% 1017.3 hPa 0 mm - 394 W/m² -
1788042303 35° C 58% 1017.2 hPa 0 mm - 389 W/m² -
1788042244 35° C 59% 1017.2 hPa 0 mm - 417 W/m² -

* Rain latest hour (hover to see other rain measurements)
** Current wind speed in m/s (hover to see current wind gust speed)